EW1160 Weather Reports


time (UTC)temp
C
wind
direction
speed
KPH
gust
KPH
rain 1hr
cm
rain 24hr
cm
rain mn
cm
humidity
%
barometer
mb
20260503180003 13 233 0.0 0.0 0.00 0.00 0.00 58 1007.9
20260503174504 13 220 0.0 0.0 0.00 0.00 0.00 49 1008.1
20260503173044 13 206 0.0 0.0 0.00 0.00 0.00 52 1008.2
20260503171604 12 233 0.0 0.0 0.00 0.00 0.00 59 1008.5
20260503081534 5 271 0.0 0.0 0.00 0.00 0.00 68 1012.0
20260503071519 2 201 0.0 0.0 0.00 0.00 0.00 74 1011.8
20260503054544 2 170 0.0 0.0 0.00 0.00 0.00 76 1012.3
20260503053018 2 177 0.0 0.0 0.00 0.00 0.00 76 1012.4
20260503051515 2 175 0.0 0.0 0.00 0.00 0.00 75 1012.6
20260503050058 2 177 0.0 0.0 0.00 0.00 0.00 74 1012.7
20260503044558 2 178 0.0 0.0 0.00 0.00 0.00 74 1012.9
20260503043048 2 174 0.0 0.0 0.00 0.00 0.00 74 1012.9
20260503041546 2 174 0.0 0.0 0.00 0.00 0.00 74 1013.0
20260503040042 2 164 0.0 0.0 0.00 0.00 0.00 73 1013.1
20260503034540 2 179 0.0 0.0 0.00 0.00 0.00 73 1013.1
20260503033038 2 177 0.0 0.0 0.00 0.00 0.00 73 1013.2
20260503031537 2 169 0.0 0.0 0.00 0.00 0.00 73 1013.3
20260503030035 3 156 0.0 0.0 0.00 0.00 0.00 72 1013.4
20260503024535 3 167 0.0 0.0 0.00 0.00 0.00 71 1013.5
20260503023023 3 163 0.0 0.0 0.00 0.00 0.00 70 1013.8
20260503021522 3 163 0.0 0.0 0.00 0.00 0.00 69 1013.8
20260503020022 3 167 0.0 0.0 0.00 0.00 0.00 68 1013.7
20260503014522 4 183 0.0 0.0 0.00 0.00 0.00 67 1013.7
20260503013021 4 170 0.0 0.0 0.00 0.00 0.00 66 1013.7
20260503011523 5 168 0.0 0.0 0.00 0.00 0.00 64 1013.7
20260503010026 5 169 0.0 0.0 0.00 0.00 0.00 61 1013.6
20260503004520 6 164 0.0 0.0 0.00 0.00 0.00 59 1013.6
20260503003019 6 164 0.0 0.0 0.00 0.00 0.00 57 1013.6
20260503001501 7 164 0.0 0.0 0.00 0.00 0.00 53 1013.6
20260503000117 7 164 0.0 0.0 0.00 0.00 0.00 52 1013.6
20260503000000 7 164 0.0 0.0 0.00 0.00 0.00 52 1013.6
20260502234552 7 137 0.0 0.0 0.00 0.00 0.00 51 1013.7
20260502233041 8 123 0.0 0.0 0.00 0.00 0.00 50 1013.7
20260502231525 8 359 0.0 0.0 0.00 0.00 0.00 49 1013.8
20260502230022 8 359 0.0 0.0 0.00 0.00 0.00 50 1013.9
20260502224503 8 359 0.0 0.0 0.00 0.00 0.00 50 1013.9
20260502223100 7 359 0.0 0.0 0.00 0.00 0.00 51 1014.2
20260502221541 7 359 0.0 0.0 0.00 0.00 0.00 52 1014.2
20260502220050 7 325 0.0 0.0 0.00 0.00 0.00 53 1014.3
20260502214522 7 20 0.0 0.0 0.00 0.00 0.00 53 1014.3
20260502213021 7 12 0.0 0.0 0.00 0.00 0.00 52 1014.3
20260502211509 7 4 0.0 0.0 0.00 0.00 0.00 56 1014.3
20260502210006 6 4 0.0 0.0 0.00 0.00 0.00 56 1014.4
20260502204505 6 330 0.0 0.0 0.00 0.00 0.00 56 1014.4
20260502203004 6 23 0.0 0.0 0.00 0.00 0.00 54 1014.6
20260502201503 6 23 0.0 0.0 0.00 0.00 0.00 54 1014.7
20260502200004 6 23 0.0 0.0 0.00 0.00 0.00 57 1014.8
20260502194502 6 22 0.0 0.0 0.00 0.00 0.00 56 1015.0
20260502193100 6 22 0.0 0.0 0.00 0.00 0.00 60 1015.2
20260502191545 5 22 0.0 0.0 0.00 0.00 0.00 60 1015.3
20260502190047 5 22 0.0 0.0 0.00 0.00 0.00 63 1015.4
20260502184522 5 14 0.0 0.0 0.00 0.00 0.00 63 1015.4
20260502183021 5 11 0.0 0.0 0.00 0.00 0.00 63 1015.5
20260502181505 5 8 0.0 0.0 0.00 0.00 0.00 64 1015.6